Change the Weather History Date:

Sunday, October 7, 2012

  Actual Average Record
Temperature  
Mean Temperature 64 °F -  
Max Temperature 73 °F 69 °F 82 °F (2001)
Min Temperature 55 °F 49 °F 32 °F (1996)
Degree Days  
Heating Degree Days 1    
Growing Degree Days 14 (Base 50)    
Moisture  
Dew Point 61 °F    
Average Humidity 83    
Maximum Humidity 94    
Minimum Humidity 77    
Precipitation  
Precipitation 0.00 in 0.13 in - ()
Sea Level Pressure  
Sea Level Pressure 30.04 in    
Wind  
Wind Speed 4 mph ()    
Max Wind Speed 13 mph    
Max Gust Speed -    
Visibility 6.2 miles    
Events      
Averages and records for this station are not official NWS values.
T = Trace of Precipitation, MM = Missing Value Source: Averaged Metar Reports

Daily Weather History Graph

Daily Weather History Graph

Search for Another Location

Airport or City:

Trip Planner

Search our weather history database for the weather conditions in past years. The results will help you decide how hot, cold, wet, or windy it might be!

Date:

Astronomy

Oct. 07, 2012 Rise Set
Actual Time 7:13 AM CEST 6:40 PM CEST
Civil Twilight 6:45 AM CEST 7:08 PM CEST
Nautical Twilight 6:13 AM CEST 7:40 PM CEST
Astronomical Twilight 5:40 AM CEST 8:13 PM CEST
Moon 11:32 PM CEST (10/7) 1:42 PM CEST (10/7)
Length of Visible Light 12h 23m
Length of Day
11h 27m
Waning Gibbous, 58% of the Moon is Illuminated
Oct 7
Waning Gibbous
Oct 8
Last Quarter
Oct 15
New
Oct 22
First Quarter
Oct 29
Full

Hourly Weather History & Observations

Time (CEST) Temp. Dew Point Humidity Pressure Visibility Wind Dir Wind Speed Gust Speed Precip Events Conditions
12:15 AM 60.8 °F 55.4 °F 82% 30.12 in - ESE 2.3 mph - N/A   Clear
12:45 AM 59.0 °F 55.4 °F 88% 30.12 in - ESE 3.5 mph - N/A   Clear
1:15 AM 60.8 °F 55.4 °F 82% 30.12 in - ESE 2.3 mph - N/A   Clear
1:45 AM 60.8 °F 55.4 °F 82% 30.09 in - ESE 2.3 mph - N/A   Clear
2:15 AM 60.8 °F 55.4 °F 82% 30.09 in - ESE 3.5 mph - N/A   Clear
2:45 AM 59.0 °F 55.4 °F 88% 30.09 in - East 2.3 mph - N/A   Clear
3:15 AM 59.0 °F 53.6 °F 82% 30.09 in - East 2.3 mph - N/A   Clear
3:45 AM 57.2 °F 53.6 °F 88% 30.09 in - ENE 2.3 mph - N/A   Clear
4:15 AM 57.2 °F 53.6 °F 88% 30.09 in - NE 1.2 mph - N/A   Clear
4:45 AM 57.2 °F 51.8 °F 82% 30.09 in - ENE 2.3 mph - N/A   Clear
5:15 AM 57.2 °F 51.8 °F 82% 30.09 in - ENE 2.3 mph - N/A   Clear
5:45 AM 57.2 °F 50.0 °F 77% 30.09 in - East 2.3 mph - N/A   Clear
6:15 AM 55.4 °F 51.8 °F 88% 30.06 in 6.2 mi East 3.5 mph - N/A   Partly Cloudy
6:45 AM 57.2 °F 51.8 °F 82% 30.06 in 6.2 mi ENE 2.3 mph - N/A   Partly Cloudy
7:15 AM 57.2 °F 53.6 °F 88% 30.06 in 6.2 mi East 4.6 mph - N/A   Partly Cloudy
7:45 AM 59.0 °F 55.4 °F 88% 30.06 in 6.2 mi NE 1.2 mph - N/A   Partly Cloudy
8:15 AM 59.0 °F 55.4 °F 88% 30.06 in 6.2 mi ESE 1.2 mph - N/A   Scattered Clouds
8:45 AM 60.8 °F 57.2 °F 88% 30.06 in 6.2 mi North 2.3 mph - N/A   Scattered Clouds
9:15 AM 60.8 °F 57.2 °F 88% 30.06 in 6.2 mi Calm Calm - N/A   Scattered Clouds
9:45 AM 66.2 °F 60.8 °F 83% 30.06 in 6.2 mi East 2.3 mph - N/A   Partly Cloudy
10:15 AM 68.0 °F 62.6 °F 83% 30.06 in 6.2 mi NNW 3.5 mph - N/A   Scattered Clouds
10:45 AM 71.6 °F 64.4 °F 78% 30.06 in 6.2 mi South 8.1 mph - N/A   Scattered Clouds
11:15 AM 71.6 °F 64.4 °F 78% 30.01 in 6.2 mi SSE 12.7 mph - N/A   Scattered Clouds
11:45 AM 71.6 °F 64.4 °F 78% 30.06 in 6.2 mi South 9.2 mph - N/A   Scattered Clouds
12:15 PM 71.6 °F 64.4 °F 78% 30.06 in 6.2 mi South 9.2 mph - N/A   Scattered Clouds
12:45 PM 71.6 °F 64.4 °F 78% 30.06 in 6.2 mi South 10.4 mph - N/A   Scattered Clouds
1:15 PM 71.6 °F 64.4 °F 78% 30.04 in 6.2 mi SSE 9.2 mph - N/A   Scattered Clouds
1:45 PM 71.6 °F 64.4 °F 78% 30.04 in 6.2 mi SSE 6.9 mph - N/A   Scattered Clouds
2:15 PM 71.6 °F 64.4 °F 78% 30.04 in 6.2 mi South 6.9 mph - N/A   Scattered Clouds
2:45 PM 71.6 °F 66.2 °F 83% 30.01 in 6.2 mi SSE 9.2 mph - N/A   Scattered Clouds
3:15 PM 73.4 °F 66.2 °F 78% 30.01 in 6.2 mi South 8.1 mph - N/A   Scattered Clouds
3:45 PM 71.6 °F 64.4 °F 78% 29.98 in 6.2 mi South 6.9 mph - N/A   Scattered Clouds
4:15 PM 73.4 °F 66.2 °F 78% 29.98 in 6.2 mi South 8.1 mph - N/A   Scattered Clouds
4:45 PM 73.4 °F 66.2 °F 78% 29.98 in 6.2 mi South 8.1 mph - N/A   Scattered Clouds
5:15 PM 73.4 °F 66.2 °F 78% 29.98 in 6.2 mi South 10.4 mph - N/A   Scattered Clouds
5:45 PM 71.6 °F 66.2 °F 83% 29.98 in 6.2 mi South 8.1 mph - N/A   Scattered Clouds
6:15 PM 71.6 °F 64.4 °F 78% 29.98 in 6.2 mi South 6.9 mph - N/A   Scattered Clouds
6:45 PM 71.6 °F 66.2 °F 83% 29.98 in 6.2 mi South 9.2 mph - N/A   Scattered Clouds
7:15 PM 69.8 °F 66.2 °F 88% 29.98 in 6.2 mi South 9.2 mph - N/A   Scattered Clouds
7:45 PM 69.8 °F 66.2 °F 88% 29.98 in 6.2 mi South 8.1 mph - N/A   Scattered Clouds
8:15 PM 69.8 °F 66.2 °F 88% 29.98 in 6.2 mi South 5.8 mph - N/A   Scattered Clouds
8:45 PM 69.8 °F 66.2 °F 88% 29.98 in 6.2 mi South 3.5 mph - N/A   Scattered Clouds
9:15 PM 69.8 °F 66.2 °F 88% 29.98 in 6.2 mi South 4.6 mph - N/A   Scattered Clouds
9:45 PM 69.8 °F 66.2 °F 88% 29.98 in 6.2 mi SSW 3.5 mph - N/A   Scattered Clouds
10:15 PM 69.8 °F 66.2 °F 88% 29.98 in 6.2 mi South 2.3 mph - N/A   Scattered Clouds
10:45 PM 69.8 °F 66.2 °F 88% 29.98 in 6.2 mi WSW 2.3 mph - N/A   Scattered Clouds
11:15 PM 69.8 °F 66.2 °F 88% 29.98 in 6.2 mi West 3.5 mph - N/A   Partly Cloudy
11:45 PM 68.0 °F 66.2 °F 94% 29.98 in 6.2 mi Calm Calm - N/A   Partly Cloudy